Weather History for Hamilton, OH

Change the Weather History Date:

Monday, April 23, 2012

  Actual Average (KCVG) Record (KCVG)
Temperature  
Mean Temperature 48 °F 57 °F  
Max Temperature 60 °F 67 °F 88 °F (1925)
Min Temperature 37 °F 46 °F 23 °F (1986)
Degree Days  
Heating Degree Days 17 9  
Month to date heating degree days 286  
Since 1 July heating degree days 4787  
Cooling Degree Days 0 1  
Month to date cooling degree days 11  
Year to date cooling degree days 13  
Growing Degree Days 0 (Base 50)    
Moisture  
Dew Point 20 °F    
Average Humidity 36    
Maximum Humidity 67    
Minimum Humidity 20    
Precipitation  
Precipitation 0.00 in 0.13 in 2.30 in (2011)
Month to date precipitation 2.93  
Year to date precipitation 12.70  
Snow  
Snow 0.00 in 0.00 in - ()
Month to date snowfall 0.5  
Since 1 July snowfall 22.1  
Snow Depth -    
Sea Level Pressure  
Sea Level Pressure 29.82 in    
Wind  
Wind Speed 12 mph (NW)    
Max Wind Speed 28 mph    
Max Gust Speed 36 mph    
Visibility 10 miles    
Events      
T = Trace of Precipitation, MM = Missing Value Source: NWS Daily Summary

Daily Weather History Graph

Daily Weather History Graph

Search for Another Location

Airport:

Trip Planner

Search our weather history database for the weather conditions in past years. The results will help you decide how hot, cold, wet, or windy it might be!

Date:

Astronomy

Apr. 23, 2012 Rise Set
Actual Time 6:49 AM EDT 8:24 PM EDT
Civil Twilight 6:20 AM EDT 8:52 PM EDT
Nautical Twilight 5:46 AM EDT 9:26 PM EDT
Astronomical Twilight 5:10 AM EDT 10:03 PM EDT
Moon 8:00 AM EDT (4/23) 10:52 PM EDT (4/23)
Length of Visible Light 14h 31m
Length of Day
13h 35m
Waxing Crescent, 5% of the Moon is Illuminated
Apr 23
Waxing Crescent
Apr 29
First Quarter
May 5
Full
May 12
Last Quarter
May 20
New

Hourly Weather History & Observations

Time (EDT) Temp. Windchill Dew Point Humidity Pressure Visibility Wind Dir Wind Speed Gust Speed Precip Events Conditions
12:53 AM 39.0 °F 34.8 °F 28.9 °F 67% 29.91 in 10.0 mi NNW 5.8 mph - N/A   Overcast
1:53 AM 41.0 °F 35.8 °F 30.0 °F 65% 29.89 in 10.0 mi NNW 8.1 mph - N/A   Overcast
2:53 AM 41.0 °F 35.8 °F 27.0 °F 57% 29.87 in 10.0 mi NW 8.1 mph - N/A   Overcast
3:53 AM 41.0 °F 36.4 °F 25.0 °F 53% 29.86 in 10.0 mi NNW 6.9 mph - N/A   Overcast
4:53 AM 39.9 °F 34.5 °F 24.1 °F 53% 29.85 in 10.0 mi NW 8.1 mph - N/A   Clear
5:53 AM 39.0 °F 32.8 °F 24.1 °F 55% 29.85 in 10.0 mi NW 9.2 mph - N/A   Clear
6:53 AM 37.9 °F 30.9 °F 21.9 °F 53% 29.85 in 10.0 mi NW 10.4 mph - N/A   Clear
7:53 AM 39.0 °F 32.3 °F 21.9 °F 50% 29.86 in 10.0 mi NW 10.4 mph - N/A   Clear
8:53 AM 45.0 °F 40.1 °F 23.0 °F 42% 29.86 in 10.0 mi NNW 9.2 mph 19.6 mph N/A   Clear
9:53 AM 48.0 °F - 21.9 °F 36% 29.85 in 10.0 mi NNW 13.8 mph 23.0 mph N/A   Clear
10:53 AM 51.1 °F - 19.9 °F 29% 29.84 in 10.0 mi North 19.6 mph 28.8 mph N/A   Clear
11:53 AM 54.0 °F - 19.9 °F 26% 29.83 in 10.0 mi NNW 16.1 mph 28.8 mph N/A   Clear
12:53 PM 55.0 °F - 19.0 °F 24% 29.83 in 10.0 mi NNW 18.4 mph 28.8 mph N/A   Clear
1:53 PM 57.0 °F - 19.9 °F 24% 29.80 in 10.0 mi NW 21.9 mph 35.7 mph N/A   Clear
2:53 PM 59.0 °F - 21.0 °F 23% 29.79 in 10.0 mi NW 21.9 mph 28.8 mph N/A   Clear
3:53 PM 59.0 °F - 19.0 °F 21% 29.77 in 10.0 mi NW 23.0 mph 33.4 mph N/A   Clear
4:53 PM 59.0 °F - 17.1 °F 20% 29.76 in 10.0 mi NW 24.2 mph 34.5 mph N/A   Partly Cloudy
5:53 PM 59.0 °F - 18.0 °F 20% 29.75 in 10.0 mi NW 27.6 mph 35.7 mph N/A   Clear
6:53 PM 57.0 °F - 17.1 °F 21% 29.76 in 10.0 mi NW 19.6 mph 33.4 mph N/A   Partly Cloudy
7:53 PM 54.0 °F - 15.1 °F 22% 29.77 in 10.0 mi NW 16.1 mph 25.3 mph N/A   Clear
8:53 PM 50.0 °F - 12.0 °F 22% 29.78 in 10.0 mi NW 15.0 mph 23.0 mph N/A   Clear
9:53 PM 48.0 °F - 12.9 °F 24% 29.78 in 10.0 mi WNW 10.4 mph 19.6 mph N/A   Clear
10:53 PM 46.9 °F - 12.9 °F 25% 29.78 in 10.0 mi WNW 9.2 mph - N/A   Clear
11:53 PM 45.0 °F 41.2 °F 12.9 °F 27% 29.78 in 10.0 mi WNW 6.9 mph - N/A   Clear